Location: Aldenham
(51.6667°N, 0.3500°W)
Time: 05:54:26
(UTC+00:00)

SL-19 R/B - Pass Details

Date: 18 November 2025
Orbit: 796 x 1007 km, 99.6° (Epoch: 16 December)

Event Time Altitude Azimuth Distance (km) Brightness Sun altitude
Rises 18:12:05 0° 158° (SSE) 3,301 7.1 -19.0°
Reaches altitude 10° 18:14:24 10° 158° (SSE) 2,366 6.4 -19.3°
Maximum altitude 18:19:36 82° 72° (ENE) 811 4.0 -20.1°
Drops below altitude 10° 18:24:52 10° 345° (NNW) 2,402 6.7 -21.0°
Sets 18:27:14 0° 344° (NNW) 3,354 7.5 -21.3°
